Location: ???????
(37.9763°N, 23.8889°E)
Time: 08:42:51
(UTC+00:00)

SAR-Lupe-4 - Pass Details

Date: 15 June 2024
Orbit: 476 x 482 km, 98.1° (Epoch: 02 April)

Event Time Altitude Azimuth Distance (km) Brightness Sun altitude
Rises 01:24:04 0° 10° (N) 2,541 8.2 -15.7°
Reaches altitude 10° 01:26:08 10° 9° (N) 1,657 7.1 -15.4°
Maximum altitude 01:29:41 73° 284° (WNW) 503 3.5 -14.9°
Enters shadow 01:31:29 27° 204° (SSW) 948 4.5 -14.7°
